Location: Brachstadt
(48.6975°N, 10.6755°E)
Time: 09:30:43
(UTC+00:00)

CZ-4C R/B - Pass Details

Date: 18 September 2020
Orbit: 626 x 1376 km, 63.4° (Epoch: 27 October)

Event Time Altitude Azimuth Distance (km) Brightness Sun altitude
Exits shadow 23:02:01 24° 29° (NNE) 1,787 4.2 -39.9°
Drops below altitude 10° 23:04:38 10° 38° (NE) 2,715 5.3 -39.9°
Sets 23:07:33 0° 43° (NE) 3,794 6.1 -39.9°
